{"data":{"norad_id":54642,"intl_designator":"2022-166A","name":"ONEWEB-0527","alt_names":[],"object_type":"PAYLOAD","status":"ACTIVE","operator":null,"country":"UK","launch_date":"2022-12-08","launch_site_code":"AFETR","launch_vehicle":null,"mission":null,"orbit_class":"UNKNOWN","rcs_meters":null,"size_class":null,"mass_kg":null,"dimensions":null,"purposes":["comms"],"wikipedia_slug":null,"has_3d_model":false,"image_url":null,"decayed_at":null,"tle_current":{"epoch":"2026-05-25T00:10:59.149056Z","epoch_age_seconds":71447,"freshness":"FRESH","line1":"1 54642U 22166A   26145.00762904  .00000061  00000+0  11626-3 0  9999","line2":"2 54642  87.9251 248.6069 0001942 102.0067 258.1285 13.21827888168477","mean_motion":13.21827888,"eccentricity":0.0001942,"inclination_deg":87.9251,"raan_deg":248.6069,"arg_perigee_deg":102.0067,"mean_anomaly_deg":258.1285,"bstar":0.00011626,"rev_number":16847,"period_min":108.94005286716,"perigee_km":1176.2788210084,"apogee_km":1179.213526033,"semimajor_km":7555.8831735207,"source":"CELESTRAK","updated_at":"2026-05-25T13:38:22.592790Z"}}}